Tracking 31027 objects as of 19-Jul-2025
HD Live streaming from Space Station
objects crossing your sky now

CZ-4C DEB

Track CZ-4C DEB now!
10-day predictions


NORAD ID: 43410
Int'l Code: 2013-052E
Perigee: 806.4 km
Apogee: 1,163.2 km
Inclination: 98.8 °
Period: 104.6 minutes
Semi major axis: 7355 km
RCS: Unknown
Launch date: September 23, 2013
Source: People's Republic of China (PRC)
Launch site: Taiyaun Space Center, China (TSC)

Note: This is SATELLITE DEBRIS
Your satellite tracking list
FLOCK 4X 28
Track 1 satellite(s)




NASA's NSSDC Master Catalog

Two Line Element Set (TLE):
1 43410U 13052E   25198.27295327  .00000337  00000-0  31305-3 0  9993
2 43410  98.7775   2.0537 0242509 221.1426 137.1220 13.76133726584466
Source of the keplerian elements: AFSPC